TimeCDT,TemperatureF,Dew PointF,Humidity,Sea Level PressureIn,VisibilityMPH,Wind Direction,Wind SpeedMPH,Gust SpeedMPH,PrecipitationIn,Events,Conditions,WindDirDegrees,DateUTC
12:10 AM,75.2,73.4,94,29.80,8.0,Calm,Calm,-,0.01,Rain,Light Rain,0,2013-09-21 05:10:00
12:16 AM,75.2,73.4,94,29.80,4.0,Calm,Calm,-,0.03,Rain,Rain,0,2013-09-21 05:16:00
12:37 AM,75.2,73.4,94,29.82,2.0,WNW,8.1,-,0.12,Rain,Heavy Rain,300,2013-09-21 05:37:00
12:45 AM,73.4,73.4,100,29.82,1.5,NW,5.8,-,0.19,Rain,Heavy Rain,320,2013-09-21 05:45:00
12:53 AM,73.9,73.0,97,29.80,1.2,West,9.2,-,0.31,Rain,Heavy Rain,270,2013-09-21 05:53:00
1:03 AM,73.4,71.6,94,29.81,0.5,WNW,11.5,-,0.39,Fog-Rain,Heavy Rain,300,2013-09-21 06:03:00
1:14 AM,73.4,71.6,94,29.82,0.8,West,11.5,-,0.73,Rain,Heavy Rain,270,2013-09-21 06:14:00
1:28 AM,73.4,71.6,94,29.81,0.8,West,6.9,-,1.02,Rain,Heavy Rain,280,2013-09-21 06:28:00
1:35 AM,73.4,71.6,94,29.81,1.0,WSW,6.9,-,1.11,Rain,Heavy Rain,250,2013-09-21 06:35:00
1:43 AM,73.4,71.6,94,29.80,0.5,West,8.1,-,1.41,Fog-Rain,Heavy Rain,260,2013-09-21 06:43:00
1:53 AM,73.9,72.0,93,29.79,0.8,WSW,11.5,-,1.70,Rain,Heavy Rain,250,2013-09-21 06:53:00
2:10 AM,73.4,71.6,94,29.80,1.0,West,4.6,-,0.30,Rain,Heavy Rain,260,2013-09-21 07:10:00
2:22 AM,73.4,71.6,94,29.80,3.0,WSW,6.9,-,0.33,Rain,Rain,250,2013-09-21 07:22:00
2:35 AM,73.4,71.6,94,29.79,2.0,Calm,Calm,-,0.38,Rain,Rain,0,2013-09-21 07:35:00
2:44 AM,71.6,69.8,94,29.79,1.8,Calm,Calm,-,0.41,Rain,Heavy Rain,0,2013-09-21 07:44:00
2:53 AM,72.0,70.0,93,29.76,2.5,Calm,Calm,-,0.43,Rain,Rain,0,2013-09-21 07:53:00
3:01 AM,71.6,69.8,94,29.79,4.0,SSW,3.5,-,0.02,Rain,Rain,200,2013-09-21 08:01:00
3:43 AM,71.6,69.8,94,29.78,10.0,Calm,Calm,-,0.05,Rain,Light Rain,0,2013-09-21 08:43:00
3:53 AM,72.0,70.0,93,29.76,10.0,SSE,3.5,-,0.05,Rain,Light Rain,150,2013-09-21 08:53:00
4:28 AM,71.6,69.8,94,29.79,5.0,Calm,Calm,-,N/A,,Overcast,0,2013-09-21 09:28:00
4:53 AM,72.0,70.0,93,29.77,3.0,SE,4.6,-,0.00,Rain,Light Rain,140,2013-09-21 09:53:00
5:04 AM,71.6,71.6,100,29.80,2.5,SSE,6.9,-,0.02,Rain,Rain,160,2013-09-21 10:04:00
5:11 AM,71.6,71.6,100,29.80,3.0,SSE,6.9,-,0.03,Rain,Rain,150,2013-09-21 10:11:00
5:34 AM,71.6,69.8,94,29.80,2.5,South,8.1,-,0.09,Rain,Heavy Rain,170,2013-09-21 10:34:00
5:44 AM,71.6,69.8,94,29.80,2.5,Calm,Calm,-,0.13,Rain,Heavy Rain,0,2013-09-21 10:44:00
5:53 AM,72.0,70.0,93,29.78,1.2,SW,3.5,-,0.22,Rain,Heavy Rain,220,2013-09-21 10:53:00
6:11 AM,71.6,69.8,94,29.80,2.5,Calm,Calm,-,0.12,Rain,Rain,0,2013-09-21 11:11:00
6:19 AM,71.6,69.8,94,29.80,5.0,Calm,Calm,-,0.13,Rain,Light Rain,0,2013-09-21 11:19:00
6:23 AM,71.6,69.8,94,29.80,4.0,Calm,Calm,-,0.14,Rain,Rain,0,2013-09-21 11:23:00
6:33 AM,71.6,69.8,94,29.81,1.8,Calm,Calm,-,0.19,Rain,Heavy Rain,0,2013-09-21 11:33:00
6:51 AM,71.6,69.8,94,29.81,1.5,Calm,Calm,-,0.30,Rain,Heavy Rain,0,2013-09-21 11:51:00
6:53 AM,72.0,70.0,93,29.79,1.8,Calm,Calm,-,0.31,Rain,Heavy Rain,0,2013-09-21 11:53:00
6:59 AM,71.6,69.8,94,29.81,2.5,Calm,Calm,-,0.02,Rain,Heavy Rain,0,2013-09-21 11:59:00
7:09 AM,71.6,69.8,94,29.82,1.8,Calm,Calm,-,0.06,Rain,Heavy Rain,0,2013-09-21 12:09:00
7:11 AM,71.6,69.8,94,29.82,2.0,Calm,Calm,-,0.06,Rain,Rain,0,2013-09-21 12:11:00
7:25 AM,71.6,69.8,94,29.82,1.2,West,3.5,-,0.12,Rain,Heavy Rain,270,2013-09-21 12:25:00
7:53 AM,72.0,70.0,93,29.80,2.0,Calm,Calm,-,0.22,Rain,Rain,0,2013-09-21 12:53:00
7:58 AM,71.6,69.8,94,29.82,3.0,Calm,Calm,-,0.01,Rain,Rain,0,2013-09-21 12:58:00
8:14 AM,71.6,69.8,94,29.82,1.8,NNW,6.9,-,0.03,Rain,Rain,330,2013-09-21 13:14:00
8:24 AM,71.6,69.8,94,29.83,2.0,NNW,5.8,-,0.04,Rain,Light Rain,340,2013-09-21 13:24:00
8:34 AM,71.6,69.8,94,29.83,4.0,North,9.2,-,0.04,Rain,Light Rain,10,2013-09-21 13:34:00
8:42 AM,71.6,69.8,94,29.83,2.5,NE,6.9,17.3,0.05,Rain,Light Rain,40,2013-09-21 13:42:00
8:53 AM,71.1,69.1,93,29.81,2.5,NNE,8.1,-,0.05,Rain,Light Rain,20,2013-09-21 13:53:00
9:03 AM,71.6,69.8,94,29.84,1.5,NNE,4.6,-,0.02,Rain,Rain,20,2013-09-21 14:03:00
9:17 AM,71.6,69.8,94,29.84,1.0,North,4.6,-,0.08,Rain,Rain,10,2013-09-21 14:17:00
9:27 AM,71.6,68.0,88,29.84,1.2,NNE,8.1,-,0.09,Rain,Rain,30,2013-09-21 14:27:00
9:35 AM,71.6,68.0,88,29.84,3.0,NNE,8.1,-,0.10,Rain,Light Rain,30,2013-09-21 14:35:00
9:53 AM,71.1,69.1,93,29.83,6.0,NNE,5.8,-,0.10,Rain,Light Rain,30,2013-09-21 14:53:00
10:02 AM,71.6,69.8,94,29.85,10.0,NNE,9.2,-,0.00,Rain,Light Rain,30,2013-09-21 15:02:00
10:12 AM,71.6,69.8,94,29.85,10.0,NNE,6.9,-,0.00,,Overcast,30,2013-09-21 15:12:00
10:26 AM,71.6,69.8,94,29.86,8.0,NNE,5.8,-,0.00,Rain,Light Rain,20,2013-09-21 15:26:00
10:53 AM,72.0,69.1,91,29.83,9.0,Variable,5.8,-,0.00,Rain,Light Rain,0,2013-09-21 15:53:00
11:53 AM,72.0,69.1,91,29.83,9.0,NNE,6.9,-,0.01,,Overcast,30,2013-09-21 16:53:00
12:06 PM,71.6,68.0,88,29.85,10.0,NNE,9.2,-,N/A,,Overcast,20,2013-09-21 17:06:00
12:23 PM,73.4,68.0,83,29.85,10.0,NNE,5.8,-,N/A,,Overcast,30,2013-09-21 17:23:00
12:27 PM,73.4,69.8,88,29.84,10.0,NNE,4.6,-,N/A,,Overcast,20,2013-09-21 17:27:00
12:53 PM,73.0,68.0,84,29.83,10.0,NE,8.1,-,N/A,,Overcast,40,2013-09-21 17:53:00
1:11 PM,73.4,68.0,83,29.84,10.0,NNE,8.1,-,N/A,,Overcast,30,2013-09-21 18:11:00
1:53 PM,75.0,66.9,76,29.81,10.0,NNE,8.1,-,N/A,,Overcast,20,2013-09-21 18:53:00
2:19 PM,75.2,66.2,73,29.82,10.0,Variable,6.9,-,N/A,,Overcast,0,2013-09-21 19:19:00
2:40 PM,75.2,66.2,73,29.82,10.0,NNE,6.9,-,N/A,,Overcast,30,2013-09-21 19:40:00
2:53 PM,75.0,66.9,76,29.79,10.0,NE,5.8,-,N/A,,Overcast,40,2013-09-21 19:53:00
3:00 PM,77.0,66.2,69,29.81,10.0,Variable,5.8,-,N/A,,Overcast,0,2013-09-21 20:00:00
3:53 PM,78.1,66.0,66,29.78,10.0,NE,9.2,-,N/A,,Mostly Cloudy,40,2013-09-21 20:53:00
4:10 PM,78.8,66.2,65,29.80,10.0,NE,8.1,-,N/A,,Scattered Clouds,40,2013-09-21 21:10:00
4:53 PM,78.1,66.0,66,29.77,10.0,NE,6.9,-,N/A,,Mostly Cloudy,40,2013-09-21 21:53:00
5:53 PM,77.0,66.0,69,29.77,10.0,North,3.5,-,N/A,,Mostly Cloudy,10,2013-09-21 22:53:00
6:03 PM,77.0,66.2,69,29.79,10.0,North,5.8,-,N/A,,Overcast,10,2013-09-21 23:03:00
6:16 PM,75.2,66.2,73,29.80,10.0,Variable,4.6,-,N/A,,Scattered Clouds,0,2013-09-21 23:16:00
6:53 PM,75.0,64.9,71,29.78,10.0,NNE,3.5,-,N/A,,Clear,20,2013-09-21 23:53:00
7:53 PM,72.0,64.9,78,29.79,10.0,Calm,Calm,-,N/A,,Clear,0,2013-09-22 00:53:00
8:53 PM,71.1,64.9,81,29.81,10.0,Calm,Calm,-,N/A,,Clear,0,2013-09-22 01:53:00
9:53 PM,69.1,64.0,84,29.82,10.0,Calm,Calm,-,N/A,,Clear,0,2013-09-22 02:53:00
10:53 PM,68.0,64.0,87,29.82,10.0,Calm,Calm,-,N/A,,Clear,0,2013-09-22 03:53:00
11:53 PM,66.9,60.1,79,29.83,10.0,NNE,3.5,-,N/A,,Clear,20,2013-09-22 04:53:00